Вернуться в каталог

STARLINK-34088

АктивенСвязьVLEO
NORAD 64025·PAYLOAD·🇺🇸 United States

Запущен May 16, 2025 с Vandenberg Space Force Base

Loading…

Ближайшие Пролёты (ближайшие 24 часа)

TLE

СвежийSource: CelesTrak SupGP

Эпоха: Sep 15, 2026, 02:49 UTC

1 64025C 25102D   26258.11784722  .00089857  00000+0  31250-2 0  2589
2 64025  70.0009 355.1254 0003487 270.3934 303.4805 15.29541242    19

Отслеживайте STARLINK-34088 в реальном времени с AllMySat

Download on the App Store